x

St. Clair Shores, Mi (clsm4) Weather Station

8:40am - Sun 30th Apr 2017 All times are CDT. -5 hours from GMT.

  • Wind
    14mph, 24mph gusts
  • Air Temp 46°f
  • Sea Pressure 1017.3mb
  • St. Clair Shores, Mi
  • St. Clair Shores, Mi

More Historic Weather Station data

Upgrade to MSW Pro to gain access to the past 30 days of data for over 8000 Wavebouys and Weather Stations around the globe.

Join Pro

Comparision Forecast

View Surf forecast
   
Sun 04/30 8:40am 14 24 mph 1017.3mb 46f
8:00am 14 17 mph 1017.6mb 46f
7:50am 14 16 mph 1017.6mb 46f
7:40am 15 17 mph 1017.6mb 46f
7:30am 15 18 mph 1017.3mb 46f
7:20am 15 17 mph 1017.6mb 46f
7:10am 14 17 mph 1017.6mb 46f
7:00am 14 17 mph 1017.9mb 46f
6:50am 14 18 mph 1017.9mb 46f
6:40am 17 20 mph 1017.9mb 46f
6:30am 17 21 mph 1017.9mb 46f
6:20am 18 23 mph 1017.9mb 46f
6:10am 18 23 mph 1017.9mb 46f
6:00am 18 24 mph 1017.9mb 46f
5:50am 20 24 mph 1017.6mb 46f
5:43am 17 22 mph 1017.9mb 46f
5:40am 20 22 mph 1017.9mb 46f
5:30am 18 22 mph 1018.3mb 46f
5:20am 16 20 mph 1018.6mb 46f
5:10am 16 18 mph 1018.3mb 46f
5:00am 14 18 mph 1018.3mb 46f
4:50am 16 21 mph 1018.3mb 46f
4:43am 17 25 mph 1018.6mb 45f
4:40am 17 21 mph 1018.6mb 45f
4:30am 17 21 mph 1018.6mb 45f
4:20am 16 21 mph 1018.3mb 45f
4:10am 20 23 mph 1017.9mb 45f
4:00am 20 24 mph 1017.9mb 45f
3:50am 21 26 mph 1017.9mb 45f
3:42am 23 26 mph 1017.9mb 45f
3:40am 22 26 mph 1017.9mb 45f
3:30am 22 24 mph 1017.9mb 45f
3:20am 22 25 mph 1018.6mb 45f
3:10am 21 24 mph 1019mb 45f
3:00am 18 23 mph 1019.6mb 45f
2:50am 20 23 mph 1020mb 45f
2:40am 17 21 mph 1020.3mb 45f
2:30am 17 20 mph 1020.3mb 45f
2:20am 16 18 mph 1020.7mb 45f
2:10am 14 20 mph 1020.7mb 45f
2:00am 13 17 mph 1020.3mb 45f
1:50am 15 25 mph 1021.7mb 46f
1:42am 16
mph
1019.6mb 46f
1:40am 16 18 mph 1020mb 46f
1:30am 18 22 mph 1019.6mb 45f
1:20am 20 22 mph 1019.3mb 45f
1:10am 20 25 mph 1020mb 45f
1:00am 22 28 mph 1020mb 45f
12:50am 25 30 mph 1019.3mb 45f
12:42am 23 30 mph 1019mb 45f
12:40am 22 29 mph 1020.3mb 45f
12:30am 24 28 mph 1020mb 45f
12:20am 23 24 mph 1020.3mb 45f
12:10am 20 26 mph 1021.3mb 45f
12:00am 23 26 mph 1020.3mb 44f
Sat 04/29 11:50pm 21 26 mph 1021.3mb 44f
11:40pm 23 26 mph 1020.7mb 44f
11:30pm 24 28 mph 1021mb 44f
11:20pm 22 29 mph 1021.3mb 44f
11:10pm 25 29 mph 1021mb 44f
11:00pm 25 29 mph 1021.7mb 43f
10:50pm 24 28 mph 1022mb 44f
10:40pm 22 24 mph 1023mb 44f
10:30pm 21 24 mph 1023.4mb 44f
10:20pm 20 24 mph 1023.4mb 43f
10:10pm 20 23 mph 1023.7mb 43f
10:00pm 21 23 mph 1024mb 44f
9:50pm 20 22 mph 1024.4mb 44f
9:40pm 18 22 mph 1024.7mb 43f
9:30pm 21 23 mph 1024.4mb 44f
9:20pm 20 23 mph 1024mb 44f
9:10pm 20 23 mph 1024.4mb 44f
9:00pm 18 22 mph 1024.4mb 44f
8:40pm 18 22 mph 1024mb 44f
8:00pm 18 22 mph 1023.7mb 45f
7:50pm 20 22 mph 1024mb 45f
7:40pm 16 21 mph 1023.7mb 45f
7:30pm 18 22 mph 1024mb 45f
7:20pm 16 18 mph 1024mb 45f
7:10pm 17 22 mph 1023.7mb 44f
7:00pm 18 21 mph 1023.7mb 45f
6:50pm 17 21 mph 1023.7mb 45f
6:40pm 17 20 mph 1023.7mb 45f
6:30pm 16 20 mph 1023.7mb 45f
6:20pm 16 20 mph 1023.4mb 45f
6:10pm 16 18 mph 1023.7mb 46f
6:00pm 15 17 mph 1024mb 45f
5:50pm 13 16 mph 1024.7mb 45f
5:40pm 13 17 mph 1024.4mb 45f
5:30pm 16 18 mph 1024mb 45f
5:20pm 15 17 mph 1023.7mb 45f
5:10pm 15 17 mph 1023.7mb 44f
5:00pm 13 14 mph 1024.4mb 44f
4:50pm 9 11 mph 1024.4mb 44f
4:40pm 11 18 mph 1024.4mb 44f
4:30pm 17 23 mph 1022.7mb 44f
4:20pm 22 24 mph 1021.7mb 45f
4:10pm 14 16 mph 1023.7mb 44f
4:00pm 14 20 mph 1023.4mb 44f
3:50pm 17 21 mph 1023mb 44f
3:40pm 17 21 mph 1023mb 44f
3:30pm 17 22 mph 1023.4mb 44f
3:20pm 18 22 mph 1023mb 44f
3:10pm 18 22 mph 1023mb 44f
3:00pm 18 24 mph 1023mb 44f
2:50pm 21 24 mph 1022.7mb 44f
2:40pm 18 23 mph 1023.4mb 44f
2:30pm 20 23 mph 1023.4mb 44f
2:20pm 18 21 mph 1023.7mb 44f
2:10pm 18 22 mph 1024mb 44f
2:00pm 16 20 mph 1024mb 44f
1:50pm 17 20 mph 1024mb 44f
1:40pm 16 20 mph 1024.4mb 43f
1:30pm 17 21 mph 1024mb 44f
1:20pm 16 18 mph 1024.4mb 43f
1:10pm 15 21 mph 1024.4mb 43f
1:00pm 15 18 mph 1024.4mb 43f
12:50pm 15 17 mph 1024.4mb 43f
12:40pm 14 17 mph 1024.4mb 43f
12:30pm 14 16 mph 1024.4mb 44f
12:20pm 16 18 mph 1024.4mb 44f
12:10pm 16 18 mph 1024.4mb 44f
12:00pm 15 18 mph 1024.4mb 44f
11:50am 16 20 mph 1024mb 44f
11:40am 15 20 mph 1023.7mb 44f
11:30am 16 20 mph 1023.7mb 44f
11:20am 16 18 mph 1023.7mb 44f
11:10am 17 20 mph 1023.4mb 44f
11:00am 16 18 mph 1023.7mb 45f
10:50am 17 20 mph 1023.7mb 45f
10:40am 16 20 mph 1023.4mb 44f
10:30am 16 18 mph 1023mb 44f
10:20am 15 17 mph 1023mb 44f
10:10am 14 17 mph 1022.7mb 45f
10:00am 15 20 mph 1022.4mb 45f
9:50am 15 20 mph 1021.3mb 45f
9:40am 15 22 mph 1021.7mb 45f
9:30am 17 22 mph 1021.3mb 45f
9:20am 17 22 mph 1021.3mb 45f
9:10am 15 22 mph 1021.3mb 45f
9:00am 17 21 mph 1021.3mb 44f
8:50am 18 23 mph 1021mb 44f
8:40am 18 23 mph 1021mb 44f
8:30am 22 24 mph 1021mb 44f
8:20am 18 25 mph 1021.3mb 44f
8:10am 20 23 mph 1021.3mb 44f
8:00am 17 21 mph 1021.3mb 44f
7:50am 15 23 mph 1021.7mb 44f
7:40am 15 18 mph 1021.7mb 44f
7:30am 16 22 mph 1021.3mb 44f
7:20am 20 21 mph 1021mb 44f
7:10am 17 22 mph 1021mb 44f
7:00am 16 20 mph 1020.7mb 44f
6:50am 15 22 mph 1020.3mb 44f
6:40am 16 20 mph 1020.3mb 44f
6:30am 16 21 mph 1020mb 44f
6:20am 16 21 mph 1019.6mb 44f
6:10am 17 20 mph 1019.3mb 44f
6:00am 15 21 mph 1019.3mb 44f
5:50am 17 22 mph 1019mb 44f
5:40am 18 23 mph 1018.3mb 44f
5:30am 21 26 mph 1018.3mb 44f
5:20am 21 24 mph 1017.9mb 45f
5:10am 18 24 mph 1017.9mb 45f
5:00am 20 24 mph 1017.6mb 45f
4:50am 22 25 mph 1017.3mb 46f
4:40am 21 23 mph 1016.9mb 46f
4:30am 20 22 mph 1017.3mb 46f
4:20am 22 25 mph 1017.3mb 46f
4:10am 22 26 mph 1017.3mb 46f
4:00am 23 26 mph 1017.3mb 46f
3:50am 21 25 mph 1016.6mb 47f
3:40am 20 22 mph 1016.3mb 52f
3:30am 7
mph
1016.6mb 55f
3:20am 6 8 mph 1016.6mb 55f
3:10am 7 8 mph 1016.3mb 55f
3:00am 7 8 mph 1015.9mb 55f
2:50am 6 8 mph 1016.3mb 55f
2:40am 6 7 mph 1016.3mb 55f
2:30am 7 9 mph 1016.3mb 56f
2:20am 5 6 mph 1015.9mb 56f
2:10am 3 5 mph 1016.3mb 57f
2:00am 5
mph
1015.9mb 57f
1:50am 3 5 mph 1015.9mb 58f
1:40am 2 6 mph 1015.9mb 57f
1:30am 3 5 mph 1015.6mb 57f
1:20am 3 7 mph 1015.6mb 58f
1:10am 3 6 mph 1015.6mb 58f
1:00am 3 8 mph 1015.6mb 58f
12:50am 5 9 mph 1015.6mb 58f
12:40am 6 9 mph 1015.6mb 58f
12:30am 6 8 mph 1015.9mb 58f
12:20am 6 9 mph 1015.9mb 58f
12:10am 5 8 mph 1015.6mb 58f
12:00am 7 10 mph 1015.6mb 58f
Fri 04/28 11:50pm 6 9 mph 1015.6mb 57f
11:40pm 5 9 mph 1015.6mb 57f
11:30pm 6 9 mph 1015.6mb 57f
11:20pm 3 6 mph 1015.2mb 57f
11:10pm 5 6 mph 1015.6mb 57f
11:00pm 3 5 mph 1015.6mb 57f
10:50pm 3 5 mph 1015.2mb 58f
10:40pm 5 9 mph 1015.2mb 58f
10:30pm 5 8 mph 1015.2mb 58f
10:20pm 6 10 mph 1015.2mb 58f
10:10pm 8 10 mph 1015.2mb 58f
10:00pm 7 9 mph 1015.6mb 58f
9:50pm 7 8 mph 1015.6mb 58f
9:40pm 6 8 mph 1015.6mb 58f
9:30pm 6 7 mph 1015.6mb 58f
9:20pm 6 8 mph 1015.2mb 58f
9:10pm 7 10 mph 1014.9mb 58f
8:00pm 11 17 mph 1014.2mb 57f
7:50pm 11 17 mph 1013.9mb 57f
7:40pm 9 16 mph 1013.9mb 57f
7:30pm 11 16 mph 1014.2mb 57f
7:20pm 8 13 mph 1014.2mb 57f
7:10pm 10 17 mph 1013.9mb 58f
7:00pm 13 18 mph 1014.6mb 59f
6:50pm 8 11 mph 1014.6mb 60f
6:40pm 6 9 mph 1014.2mb 60f
6:30pm 7 14 mph 1014.2mb 60f
6:20pm 10 15 mph 1014.6mb 60f
6:10pm 9 13 mph 1014.2mb 61f
6:00pm 7 10 mph 1014.6mb 62f
5:50pm 7 15 mph 1014.2mb 62f
5:40pm 11 20 mph 1014.6mb 61f
5:30pm 13 18 mph 1014.9mb 61f
5:20pm 11 21 mph 1014.9mb 61f
5:10pm 13 18 mph 1015.2mb 62f
5:00pm 10 17 mph 1015.2mb 61f
4:50pm 10 16 mph 1015.2mb 61f
4:40pm 11 16 mph 1015.2mb 62f
4:30pm 9 13 mph 1015.2mb 62f
4:20pm 8 14 mph 1015.2mb 62f
4:10pm 8 14 mph 1015.2mb 61f
4:00pm 9 15 mph 1015.2mb 61f
3:50pm 9 16 mph 1015.6mb 61f
3:40pm 9 15 mph 1015.9mb 61f
3:30pm 13 18 mph 1015.6mb 61f
3:20pm 10 17 mph 1015.6mb 60f
3:10pm 9 17 mph 1015.9mb 60f
3:00pm 10 18 mph 1015.9mb 60f
2:50pm 11 21 mph 1015.9mb 61f
2:40pm 15 24 mph 1016.3mb 60f
2:30pm 15 22 mph 1016.3mb 60f
2:20pm 15 25 mph 1016.3mb 60f
2:10pm 13 23 mph 1016.3mb 61f
2:00pm 10 21 mph 1016.3mb 61f
1:50pm 9 21 mph 1015.9mb 61f
1:40pm 16 21 mph 1015.9mb 60f
1:30pm 17 24 mph 1015.6mb 60f
1:20pm 11 23 mph 1015.9mb 60f
1:10pm 15 22 mph 1015.9mb 60f
1:00pm 11 21 mph 1015.9mb 59f
12:50pm 15 21 mph 1015.6mb 59f
12:40pm 13 22 mph 1015.6mb 58f
12:30pm 16 21 mph 1015.2mb 59f
12:20pm 15 20 mph 1015.6mb 59f
12:10pm 9 16 mph 1015.2mb 58f
12:00pm 14 21 mph 1015.2mb 58f
11:50am 10 20 mph 1015.6mb 58f
11:40am 10 15 mph 1015.6mb 58f
11:30am 6 16 mph 1015.9mb 58f
11:20am 11 15 mph 1015.9mb 58f
11:10am 9 14 mph 1015.9mb 58f
11:00am 10 17 mph 1015.9mb 58f
10:50am 11 20 mph 1016.3mb 57f
10:40am 10 15 mph 1016.3mb 57f
10:30am 10 16 mph 1016.3mb 57f
10:20am 8 18 mph 1016.3mb 56f
10:10am 9 15 mph 1016.3mb 57f
10:00am 7 15 mph 1016.3mb 56f
9:50am 9 18 mph 1016.3mb 55f
9:40am 8 14 mph 1016.3mb 55f
9:30am 8 13 mph 1016.3mb 54f
9:20am 9 13 mph 1016.3mb 53f
9:10am 9 14 mph 1016.3mb 53f
9:00am 8 14 mph 1016.3mb 53f
8:50am 8 13 mph 1016.6mb 53f
8:40am 7 10 mph 1016.3mb 53f
8:30am 8 14 mph 1016.3mb 52f
8:20am 8 11 mph 1016.3mb 53f
8:10am 5 8 mph 1015.6mb 53f
8:00am 5 8 mph 1015.2mb 51f
7:00am 5 7 mph 1014.9mb 53f
6:00am 9 16 mph 1014.6mb 49f
5:50am 8 15 mph 1014.9mb 49f
5:40am 9 17 mph 1014.6mb 49f
5:30am 11 18 mph 1014.9mb 49f
5:20am 11 21 mph 1014.9mb 49f
5:10am 11 17 mph 1014.6mb 49f
5:00am 11 17 mph 1014.6mb 49f
4:50am 7 13 mph 1014.2mb 49f
4:40am 6 9 mph 1014.2mb 49f
4:30am 6 9 mph 1013.9mb 49f
4:20am 6 11 mph 1013.5mb 49f
4:10am 7 9 mph 1013.5mb 49f
4:00am 8 9 mph 1013.2mb 50f
3:50am 7 11 mph 1012.9mb 50f
3:40am 7 11 mph 1012.9mb 50f
3:30am 9 14 mph 1012.9mb 50f
3:20am 9 14 mph 1012.5mb 50f
3:10am 8 14 mph 1012.9mb 50f
3:00am 11 16 mph 1012.5mb 51f
2:50am 10 21 mph 1012.5mb 51f
2:40am 11 20 mph 1012.5mb 51f
2:30am 11 17 mph 1012.5mb 51f
2:20am 11 16 mph 1012.5mb 51f
2:10am 11 16 mph 1012.2mb 51f
2:00am 14 17 mph 1011.9mb 51f
1:50am 10 17 mph 1012.2mb 51f
1:40am 10 15 mph 1012.2mb 52f
1:30am 11 17 mph 1011.9mb 52f
1:20am 7 16 mph 1011.9mb 52f
1:10am 11 18 mph 1011.5mb 52f
1:00am 10 20 mph 1011.5mb 52f
12:50am 14 21 mph 1011.2mb 52f
12:40am 13 17 mph 1011.5mb 52f
12:30am 13 20 mph 1011.2mb 52f
12:20am 11 16 mph 1011.2mb 52f
12:10am 11 20 mph 1010.8mb 52f
12:00am 10 16 mph 1010.5mb 52f
Thu 04/27 11:50pm 13 20 mph 1010.5mb 52f
11:40pm 14 25 mph 1010.8mb 52f
11:30pm 15 24 mph 1010.8mb 52f
11:20pm 13 23 mph 1010.8mb 52f
11:10pm 13 28 mph 1010.8mb 52f
11:00pm 17 26 mph 1010.5mb 53f
10:50pm 14 20 mph 1010.2mb 53f
10:40pm 10 17 mph 1009.8mb 53f
10:30pm 9 17 mph 1009.5mb 53f
10:20pm 16 26 mph 1009.5mb 53f
10:10pm 13 20 mph 1009.1mb 53f
10:00pm 14 24 mph 1008.8mb 53f
9:50pm 15 25 mph 1008.8mb 53f
9:40pm 16 26 mph 1008.5mb 54f
9:30pm 18 28 mph 1008.5mb 54f
9:20pm 17 28 mph 1008.1mb 54f
9:10pm 14 29 mph 1008.1mb 54f
9:02pm 21
mph
1007.8mb 54f
9:00pm 13 30 mph 1008.1mb 54f
8:50pm 16 34 mph 1007.8mb 54f
8:40pm 23 32 mph 1007.5mb 55f
8:30pm 20 29 mph 1006.8mb 55f
8:20pm 14 21 mph 1006.8mb 56f
8:10pm 14 20 mph 1006.4mb 56f
8:01pm 20 29 mph 1006.4mb 56f
8:00pm 20 26 mph 1006.4mb 56f
7:01pm 18
mph
1005.1mb 58f
7:00pm 18 28 mph 1005.1mb 58f
6:50pm 21 30 mph 1004.4mb 59f
6:45pm 18 30 mph 1004.4mb 59f
6:40pm 22 31 mph 1004.7mb 59f
6:30pm 20 30 mph 1004.4mb 60f
6:20pm 21 28 mph 1004.1mb 61f
6:10pm 22 29 mph 1004.1mb 62f
6:00pm 21 29 mph 1003.7mb 62f
5:50pm 21 29 mph 1003.4mb 63f
5:44pm 20 29 mph 1003.4mb 64f
5:40pm 16 31 mph 1003.4mb 64f
5:30pm 22 32 mph 1003.4mb 64f
5:20pm 23 33 mph 1003mb 64f
5:10pm 21 32 mph 1002.7mb 65f
5:00pm 20 33 mph 1002.4mb 66f
4:50pm 24 34 mph 1002.4mb 66f
4:40pm 23 33 mph 1002mb 67f
4:39pm 23 31 mph 1001.7mb 67f
4:30pm 22 34 mph 1001.7mb 67f
4:20pm 21 33 mph 1001.7mb 68f
4:10pm 23 32 mph 1001.4mb 68f
4:00pm 22 34 mph 1001mb 68f
3:50pm 20 33 mph 1001mb 68f
3:40pm 22 29 mph 1001mb 69f
3:30pm 20 28 mph 1001mb 69f
3:20pm 20 26 mph 1000.7mb 69f
3:10pm 20 31 mph 1001mb 69f
3:00pm 25 36 mph 1000.7mb 69f
2:50pm 15 28 mph 1000.7mb 69f
2:40pm 16 30 mph 1000.7mb 68f
2:30pm 22 32 mph 1000.7mb 69f
2:20pm 18 29 mph 1000mb 68f
2:16pm 16 29 mph 1000mb 68f
2:10pm 16 23 mph 1000.3mb 67f
2:00pm 8 17 mph 1000.3mb 67f
1:50pm 14 20 mph 1000.3mb 68f
1:40pm 11 20 mph 1000.3mb 67f
1:30pm 10 18 mph 1000mb 67f
1:20pm 17 24 mph 1000.3mb 66f
1:10pm 13 20 mph 1000mb 66f
1:00pm 13 21 mph 1000mb 66f
12:50pm 11 18 mph 999.7mb 65f
12:40pm 8 15 mph 1000mb 64f
12:30pm 7 18 mph 1000mb 64f
12:20pm 10 17 mph 1000mb 63f
12:10pm 8 16 mph 1000.3mb 62f
12:00pm 11 18 mph 1000.7mb 63f
11:50am 14 26 mph 1000.7mb 64f
11:40am 14 20 mph 999.3mb 67f
11:30am 13 20 mph 999.7mb 69f
11:20am 9 14 mph 999.7mb 70f
11:10am 9 17 mph 999.7mb 70f
11:00am 13 17 mph 999.7mb 71f
10:50am 10 17 mph 999.7mb 72f
10:40am 6 14 mph 999.7mb 71f
10:30am 9 20 mph 1000mb 71f
10:20am 10 21 mph 1000mb 72f
10:10am 15 21 mph 1000.3mb 73f
10:00am 9 20 mph 1000.3mb 73f
9:50am 11 20 mph 1000mb 72f
9:40am 14 20 mph 1000mb 73f
9:30am 8 18 mph 1000mb 73f
9:20am 8 20 mph 1000mb 73f
9:10am 8 17 mph 1000mb 73f
9:00am 10 18 mph 1000mb 72f
8:50am 13 18 mph 1000mb 72f
8:40am 9 18 mph 1000mb 71f
8:30am 13 17 mph 1000.3mb 71f
8:20am 9 17 mph 1000mb 71f
8:10am 13 18 mph 1000.3mb 71f
8:00am 8 22 mph 1000.3mb 71f
7:50am 13 17 mph 1000.3mb 71f
7:40am 9 20 mph 1000mb 71f
7:30am 11 21 mph 1000mb 72f
7:20am 9 15 mph 1000.3mb 71f
7:10am 9 18 mph 1000mb 70f
7:00am 11 17 mph 999.7mb 69f
6:50am 11 18 mph 999.7mb 69f
6:40am 11 16 mph 999.7mb 67f
6:30am 7 10 mph 1000mb 63f
6:20am 7 11 mph 1000mb 65f
6:10am 7 9 mph 1000mb 64f
6:00am 7 11 mph 1000mb 64f
5:00am 8 13 mph 1000mb 62f
4:50am 8 11 mph 1000mb 62f
4:40am 6 10 mph 1000mb 60f
4:30am 6 10 mph 1000mb 58f
4:20am 9 11 mph 1000mb 57f
4:10am 9 11 mph 1000mb 57f
4:00am 10 14 mph 1000mb 57f
3:50am 11 14 mph 999.7mb 57f
3:40am 11 14 mph 1000mb 57f
3:30am 11 14 mph 1000mb 56f
3:20am 11 13 mph 1000mb 56f
3:10am 10 11 mph 1000.3mb 57f
3:00am 8 10 mph 1000.3mb 57f
2:50am 8 10 mph 1000.3mb 57f
2:40am 7 9 mph 1000.7mb 57f
2:30am 5 6 mph 1000.7mb 56f
2:20am 5 6 mph 1001mb 56f
2:10am 3 5 mph 1001mb 56f
2:00am 3 5 mph 1001mb 57f
1:50am 2 3 mph 1001.4mb 57f
1:40am 2 3 mph 1001.4mb 57f
1:30am 2 3 mph 1001.4mb 57f
1:20am 3 5 mph 1001.4mb 57f
1:10am 5 8 mph 1001.4mb 57f
1:00am 7 9 mph 1001.4mb 57f
12:50am 9
mph
1001.4mb 57f
12:40am 8 10 mph 1001.4mb 57f
12:30am 10 11 mph 1001.4mb 58f
12:20am 10 11 mph 1001.4mb 58f
12:10am 9 10 mph 1001.4mb 58f
12:00am 7 8 mph 1001.7mb 60f
Wed 04/26 11:50pm 6 8 mph 1001.7mb 61f
11:40pm 2 8 mph 1002mb 62f
11:30pm 3 13 mph 1001.7mb 60f
11:20pm 2 3 mph 1002.4mb 57f
11:10pm 3
mph
1002.4mb 57f
11:00pm 1 5 mph 1002mb 58f
10:50pm 5 7 mph 1002mb 58f
10:40pm 6 8 mph 1002mb 58f
10:30pm 7 10 mph 1002mb 58f
10:20pm 8 10 mph 1002mb 58f
10:10pm 7 8 mph 1002mb 58f
10:00pm 5 6 mph 1002.4mb 58f
9:50pm 5 7 mph 1002.4mb 57f
9:40pm 3
mph
1002.4mb 56f
9:30pm 2 5 mph 1002.4mb 56f
9:20pm 3 7 mph 1002.4mb 57f
9:10pm 6 8 mph 1002mb 57f
9:00pm 6 7 mph 1002mb 57f
8:50pm 7 8 mph 1002mb 57f
8:40pm 8 9 mph 1002mb 58f
8:30pm 7 10 mph 1002mb 59f
8:20pm 9 11 mph 1001.7mb 60f
8:10pm 9 10 mph 1001.7mb 59f
8:00pm 8 15 mph 1001.7mb 60f
7:00pm 8 9 mph 1001.4mb 59f
6:50pm 8 10 mph 1001.4mb 60f
6:40pm 8 10 mph 1001.4mb 59f
6:30pm 9 14 mph 1001.4mb 60f
6:20pm 10 14 mph 1001.4mb 60f
6:10pm 10 13 mph 1001.4mb 59f
6:00pm 10 13 mph 1001.4mb 60f
5:50pm 10 13 mph 1001.4mb 59f
5:40pm 10 11 mph 1001.4mb 60f
5:30pm 9 13 mph 1001.4mb 60f
5:20pm 9 11 mph 1001.7mb 60f
5:10pm 9 11 mph 1001.7mb 60f
5:00pm 9 11 mph 1001.7mb 60f
4:50pm 9
mph
1001.7mb 59f
4:40pm 8 10 mph 1001.7mb 59f
4:30pm 8 10 mph 1001.7mb 58f
4:20pm 8
mph
1002mb 58f
4:10pm 8 13 mph 1002.4mb 59f
3:00pm 14 17 mph 1002.4mb 60f
2:50pm 14 15 mph 1002.4mb 59f